Location: Mountain Grove
(34.0887°N, 86.6172°W)
Time: 21:56:38
(UTC+00:00)

Cosmos 2034 Rocket - Pass Details

Date: 14 July 2020
Orbit: 959 x 1000 km, 82.9° (Epoch: 08 August)

Event Time Altitude Azimuth Distance (km) Brightness Sun altitude
Exits shadow 09:08:07 14° 181° (S) 2,395 5.7 -17.5°
Maximum altitude 09:13:29 83° 94° (E) 970 4.0 -16.6°
Drops below altitude 10° 09:19:40 10° 8° (N) 2,700 7.0 -15.7°
Sets 09:22:10 0° 8° (N) 3,653 7.8 -15.3°
